Location: McFarlands Corners
(41.4117°N, 81.3382°W)
Time: 09:47:38
(UTC+00:00)

Courier 1B Rocket - Pass Details

Date: 20 February 2026
Orbit: 920 x 1201 km, 28.2° (Epoch: 10 March)

Event Time Altitude Azimuth Distance (km) Brightness Sun altitude
Rises 03:43:37 0° 254° (WSW) 3,595 - -50.4°
Reaches altitude 10° 03:46:59 10° 237° (WSW) 2,684 - -50.8°
Maximum altitude 03:51:19 19° 195° (SSW) 2,165 - -51.4°
Drops below altitude 10° 03:55:48 10° 153° (SSE) 2,802 - -52.0°
Sets 03:59:26 0° 136° (SE) 3,810 - -52.5°
